DMSP 5D-2 F13 DEB, 40500

Orbit data source: Space-Track

DMSP 5D-2 F13 DEB, 40500 is space debris in SSO originally from a launch on Fri, 24 Mar 1995 UTC launched from the Air Force Western Test Range (AFWTR). Debris objects in space refer to the collection of defunct objects orbiting the Earth. Examples of debris include non-operational satellites, rocket bodies, and fragments generated from explosions, collisions, or faulty payload assembly.

Loading next visibility...
Identifier
40500, 1995-015CP
Orbit
SSO
Country
Flag of USUS
Related business
Manufacturer
Unknown
Mission
Spacecraft
Bus & Motor
Unknown
Mass
Unknown
Launch date (UTC)
1995-03-24 (31 years ago)
Launch vehicle
Unknown
Launch site
Air Force Western Test Range (AFWTR)
Object type
Payload
Rocket body
Debris
Shape & HBR
Unknown shape, 0.1 m
Radar Cross Section
Small (<0.1 m²)

Expand to show TLE details & history
Last TLE update: 2 days ago

TLE from 2 days ago
0 DMSP 5D-2 F13 DEB
1 40500U 95015CP  26117.51519536  .00190300  00000-0  10904-1 0  9999
2 40500  98.7781 214.1888 0012654 247.0309 112.9583 15.11615011579064
Epoch: 2026-04-27T12:21Z
TLE epoch observation values (Epoch: 2026-04-27T12:21:52.879Z)
Latitude
0.00004°
Longitude
173.21471°
Altitude
537.731 km
Speed
7.592 km/s
True Right ascension
14h 16m 45s
True Declination
0° 00' 00"
Sunlit
Object was in full shadow at epoch
Visualization orbit readout
Latitude
Unknown
Longitude
Unknown
Altitude
Unknown
Speed
Unknown
Apparent Right ascension
Unknown
Apparent Declination
Unknown
Sunlit
N/A
Visualization observer readout
Local Sidereal Time
13:08:29
Azimuth
Unknown
Elevation
Unknown
Doppler factor
Unknown
Orbital elements
Apogee altitude
537.054 km
Perigee altitude
519.576 km
Semi-major axis
6,906.452 km
Eccentricity
0.00127
Inclination
98.7781°
RAAN
214.1888°
Arg. of periapsis
247.0309°
True anomaly
113.09174°
Mean anomaly
112.9583°
Eccentric anomaly
113.02503°
Mean motion
3.78147 °/min
Orbital period
95.2 mins
BSTAR
0.010904
Loading maneuver chart data...
Computing Atmospheric mass density...

Documentation

Showing up to 5 results
|